HVN1440 VVCT-VVDN

Flight info

Callsign HVN1440
Flight time 1h 10m
Altitude 32000
Route MOXEB W12 PATMA Q2 LATOM
Aircraft A321/M-L/L

Departure

Time 2026-04-24 05:21
Airport Can Tho International Airport (VVCT)

Arrival

Time 2026-04-24 06:31
Airport Da Nang International Airport (VVDN)
Time Latitude Longitude Altitude Speed Heading
2026-04-24 04:47 10.08062 105.71040 18 ft 0 kts 151°
2026-04-24 05:10 10.08065 105.71038 18 ft 2 kts 151°
2026-04-24 05:10 10.08077 105.71030 18 ft 2 kts 151°
2026-04-24 05:10 10.08090 105.71024 18 ft 2 kts 151°
2026-04-24 05:10 10.08104 105.71016 18 ft 2 kts 151°
2026-04-24 05:11 10.08117 105.71009 18 ft 2 kts 151°
2026-04-24 05:11 10.08130 105.71001 18 ft 2 kts 151°
2026-04-24 05:11 10.08143 105.70994 18 ft 2 kts 151°
2026-04-24 05:11 10.08151 105.70989 18 ft 1 kts 151°
2026-04-24 05:12 10.08163 105.70981 18 ft 2 kts 131°
2026-04-24 05:12 10.08172 105.70969 18 ft 2 kts 114°
2026-04-24 05:12 10.08176 105.70954 18 ft 2 kts 96°
2026-04-24 05:12 10.08175 105.70939 18 ft 2 kts 77°
2026-04-24 05:13 10.08168 105.70921 18 ft 0 kts 60°
2026-04-24 05:15 10.08170 105.70925 18 ft 1 kts 61°
2026-04-24 05:15 10.08177 105.70937 18 ft 2 kts 62°
2026-04-24 05:15 10.08187 105.70957 18 ft 3 kts 61°
2026-04-24 05:15 10.08202 105.70985 18 ft 5 kts 60°
2026-04-24 05:16 10.08222 105.71018 18 ft 6 kts 60°
2026-04-24 05:16 10.08246 105.71059 18 ft 7 kts 48°
2026-04-24 05:16 10.08295 105.71059 18 ft 8 kts 335°
2026-04-24 05:16 10.08349 105.71031 18 ft 9 kts 331°
2026-04-24 05:17 10.08410 105.71028 18 ft 10 kts 36°
2026-04-24 05:17 10.08452 105.71088 18 ft 11 kts 59°
2026-04-24 05:17 10.08515 105.71198 18 ft 22 kts 60°
2026-04-24 05:17 10.08592 105.71332 18 ft 21 kts 59°
2026-04-24 05:18 10.08665 105.71460 18 ft 20 kts 60°
2026-04-24 05:18 10.08736 105.71584 18 ft 20 kts 60°
2026-04-24 05:18 10.08805 105.71706 18 ft 19 kts 59°
2026-04-24 05:18 10.08874 105.71822 18 ft 19 kts 59°
2026-04-24 05:19 10.08939 105.71938 18 ft 18 kts 67°
2026-04-24 05:19 10.08951 105.72060 18 ft 15 kts 82°
2026-04-24 05:19 10.09012 105.72133 18 ft 14 kts 343°
2026-04-24 05:19 10.09005 105.72055 18 ft 0 kts 239°
2026-04-24 05:20 10.09004 105.72052 18 ft 0 kts 239°
2026-04-24 05:20 10.08973 105.71999 18 ft 36 kts 240°
2026-04-24 05:20 10.08719 105.71555 18 ft 106 kts 239°
2026-04-24 05:20 10.08243 105.70735 29 ft 161 kts 240°
2026-04-24 05:21 10.07669 105.69720 455 ft 171 kts 241°
2026-04-24 05:21 10.07079 105.68666 1119 ft 171 kts 240°
2026-04-24 05:21 10.06500 105.67649 1695 ft 168 kts 240°
2026-04-24 05:21 10.05899 105.66592 1992 ft 179 kts 240°
2026-04-24 05:22 10.05259 105.65466 2269 ft 193 kts 240°
2026-04-24 05:22 10.04607 105.64212 2556 ft 209 kts 250°
2026-04-24 05:22 10.04499 105.62704 2823 ft 226 kts 282°
2026-04-24 05:22 10.05275 105.61255 3116 ft 245 kts 318°
2026-04-24 05:23 10.06687 105.60322 3819 ft 246 kts 332°
2026-04-24 05:23 10.08183 105.59522 4574 ft 247 kts 338°
2026-04-24 05:23 10.09868 105.59239 5263 ft 248 kts
2026-04-24 05:23 10.11443 105.59866 5985 ft 247 kts 39°
2026-04-24 05:24 10.12522 105.61175 6744 ft 246 kts 60°
2026-04-24 05:24 10.13367 105.62681 7541 ft 248 kts 62°
2026-04-24 05:24 10.14197 105.64195 8341 ft 249 kts 62°
2026-04-24 05:24 10.15043 105.65722 9139 ft 249 kts 62°
2026-04-24 05:25 10.15896 105.67242 9879 ft 252 kts 62°
2026-04-24 05:25 10.16766 105.68782 10551 ft 256 kts 62°
2026-04-24 05:25 10.17655 105.70346 11201 ft 260 kts 61°
2026-04-24 05:25 10.18564 105.71944 11756 ft 268 kts 61°
2026-04-24 05:26 10.19528 105.73638 12077 ft 285 kts 61°
2026-04-24 05:26 10.20538 105.75412 12381 ft 302 kts 61°
2026-04-24 05:26 10.21611 105.77297 12678 ft 318 kts 61°
2026-04-24 05:26 10.22751 105.79295 12969 ft 335 kts 61°
2026-04-24 05:27 10.23949 105.81396 13271 ft 350 kts 61°
2026-04-24 05:27 10.25182 105.83558 13792 ft 357 kts 61°
2026-04-24 05:27 10.26425 105.85738 14434 ft 361 kts 61°
2026-04-24 05:27 10.27764 105.87907 15045 ft 365 kts 55°
2026-04-24 05:28 10.29353 105.89919 15632 ft 370 kts 48°
2026-04-24 05:28 10.31166 105.91745 16211 ft 374 kts 44°
2026-04-24 05:28 10.33107 105.93551 16788 ft 378 kts 43°
2026-04-24 05:28 10.35043 105.95328 17340 ft 382 kts 43°
2026-04-24 05:29 10.37037 105.97160 17895 ft 386 kts 43°
2026-04-24 05:29 10.39018 105.98985 18357 ft 391 kts 43°
2026-04-24 05:29 10.41058 106.00870 18720 ft 399 kts 43°
2026-04-24 05:29 10.43087 106.02747 19190 ft 403 kts 43°
2026-04-24 05:30 10.45163 106.04671 19704 ft 406 kts 43°
2026-04-24 05:30 10.47265 106.06620 20225 ft 408 kts 43°
2026-04-24 05:30 10.49348 106.08552 20722 ft 411 kts 42°
2026-04-24 05:30 10.51447 106.10499 21201 ft 414 kts 42°
2026-04-24 05:31 10.53574 106.12472 21675 ft 416 kts 42°
2026-04-24 05:31 10.55725 106.14470 22146 ft 419 kts 42°
2026-04-24 05:31 10.57886 106.16476 22603 ft 422 kts 42°
2026-04-24 05:31 10.60025 106.18463 23033 ft 425 kts 42°
2026-04-24 05:32 10.62221 106.20503 23448 ft 428 kts 42°
2026-04-24 05:32 10.64432 106.22557 23868 ft 431 kts 42°
2026-04-24 05:32 10.66636 106.24606 24280 ft 433 kts 42°
2026-04-24 05:32 10.68858 106.26670 24680 ft 436 kts 42°
2026-04-24 05:33 10.71086 106.28741 25063 ft 438 kts 42°
2026-04-24 05:33 10.73326 106.30823 25421 ft 441 kts 42°
2026-04-24 05:33 10.75613 106.32951 25777 ft 444 kts 42°
2026-04-24 05:34 10.80160 106.37182 26468 ft 449 kts 42°
2026-04-24 05:34 10.82486 106.39347 26820 ft 451 kts 42°
2026-04-24 05:34 10.84787 106.41489 27156 ft 454 kts 42°
2026-04-24 05:34 10.87122 106.43665 27545 ft 454 kts 42°
2026-04-24 05:35 10.89428 106.45812 28016 ft 453 kts 42°
2026-04-24 05:35 10.91723 106.47948 28468 ft 451 kts 42°
2026-04-24 05:35 10.94036 106.50099 28899 ft 450 kts 42°
2026-04-24 05:35 10.96332 106.52235 29323 ft 450 kts 42°
2026-04-24 05:36 10.98628 106.54372 29750 ft 448 kts 42°
2026-04-24 05:36 11.00941 106.56525 30181 ft 447 kts 42°
2026-04-24 05:36 11.03227 106.58655 30539 ft 447 kts 42°
2026-04-24 05:36 11.05492 106.60766 30850 ft 448 kts 42°
2026-04-24 05:37 11.07785 106.62901 31151 ft 449 kts 42°
2026-04-24 05:37 11.10080 106.65040 31445 ft 450 kts 42°
2026-04-24 05:37 11.12414 106.67217 31747 ft 450 kts 42°
2026-04-24 05:37 11.14711 106.69362 31844 ft 452 kts 42°
2026-04-24 05:38 11.19315 106.73660 31855 ft 452 kts 42°
2026-04-24 05:38 11.23944 106.77985 31858 ft 451 kts 42°
2026-04-24 05:39 11.28567 106.82305 31858 ft 451 kts 42°
2026-04-24 05:39 11.33154 106.86594 31858 ft 451 kts 42°
2026-04-24 05:40 11.37773 106.90917 31858 ft 451 kts 42°
2026-04-24 05:40 11.42369 106.95220 31858 ft 451 kts 42°
2026-04-24 05:41 11.46986 106.99541 31858 ft 450 kts 42°
2026-04-24 05:41 11.51571 107.03833 31858 ft 450 kts 42°
2026-04-24 05:42 11.56221 107.08189 32182 ft 455 kts 42°
2026-04-24 05:42 11.58513 107.10337 32577 ft 453 kts 42°
2026-04-24 05:42 11.60840 107.12517 32831 ft 451 kts 42°
2026-04-24 05:43 11.65433 107.16825 32854 ft 450 kts 42°
2026-04-24 05:43 11.70034 107.21140 32857 ft 450 kts 42°
2026-04-24 05:44 11.74643 107.25466 32858 ft 450 kts 42°
2026-04-24 05:44 11.79221 107.29765 32858 ft 450 kts 42°
2026-04-24 05:45 11.83829 107.34094 32858 ft 450 kts 42°
2026-04-24 05:45 11.88397 107.38387 32859 ft 450 kts 42°
2026-04-24 05:46 11.93016 107.42731 32863 ft 450 kts 42°
2026-04-24 05:46 11.97579 107.47024 32870 ft 450 kts 42°
2026-04-24 05:47 12.02195 107.51369 32877 ft 449 kts 42°
2026-04-24 05:47 12.06753 107.55661 32882 ft 449 kts 42°
2026-04-24 05:48 12.11322 107.59963 32884 ft 449 kts 42°
2026-04-24 05:48 12.15914 107.64265 32885 ft 449 kts 42°
2026-04-24 05:49 12.20485 107.68589 32885 ft 449 kts 43°
2026-04-24 05:49 12.25031 107.72896 32885 ft 449 kts 43°
2026-04-24 05:50 12.29863 107.76957 32884 ft 448 kts 33°
2026-04-24 05:50 12.35405 107.79768 32885 ft 448 kts 19°
2026-04-24 05:51 12.41437 107.81145 32886 ft 447 kts
2026-04-24 05:51 12.47621 107.81375 32886 ft 447 kts
2026-04-24 05:52 12.53831 107.81460 32885 ft 447 kts
2026-04-24 05:52 12.60012 107.81562 32885 ft 447 kts
2026-04-24 05:53 12.66194 107.81677 32885 ft 446 kts
2026-04-24 05:53 12.72376 107.81798 32886 ft 446 kts
2026-04-24 05:54 12.78593 107.81920 32885 ft 446 kts
2026-04-24 05:54 12.84758 107.82041 32885 ft 445 kts
2026-04-24 05:55 12.90910 107.82162 32885 ft 445 kts
2026-04-24 05:55 12.97088 107.82284 32885 ft 444 kts
2026-04-24 05:56 13.03210 107.82404 32885 ft 444 kts
2026-04-24 05:56 13.09392 107.82526 32885 ft 444 kts
2026-04-24 05:57 13.15526 107.82648 32885 ft 444 kts
2026-04-24 05:57 13.21701 107.82768 32885 ft 443 kts
2026-04-24 05:58 13.27839 107.82889 32885 ft 443 kts
2026-04-24 05:58 13.33960 107.83011 32885 ft 443 kts
2026-04-24 05:59 13.40091 107.83141 32885 ft 442 kts
2026-04-24 05:59 13.46228 107.83271 32885 ft 442 kts
2026-04-24 06:00 13.52368 107.83399 32885 ft 442 kts
2026-04-24 06:00 13.58473 107.83526 32885 ft 442 kts
2026-04-24 06:01 13.64613 107.83654 32885 ft 442 kts
2026-04-24 06:01 13.70706 107.83781 32885 ft 442 kts
2026-04-24 06:02 13.76824 107.83908 32885 ft 442 kts
2026-04-24 06:02 13.82982 107.84037 32886 ft 441 kts
2026-04-24 06:03 13.89073 107.84163 32888 ft 442 kts
2026-04-24 06:03 13.95194 107.84290 32891 ft 442 kts
2026-04-24 06:04 14.01310 107.84400 32893 ft 441 kts 360°
2026-04-24 06:04 14.07443 107.84370 32894 ft 441 kts 360°
2026-04-24 06:05 14.13549 107.84383 32894 ft 441 kts 360°
2026-04-24 06:05 14.19660 107.84386 32894 ft 441 kts 359°
2026-04-24 06:06 14.25802 107.84383 32894 ft 441 kts 359°
2026-04-24 06:06 14.31918 107.84386 32894 ft 442 kts 359°
2026-04-24 06:07 14.38037 107.84384 32894 ft 442 kts 359°
2026-04-24 06:07 14.44181 107.84386 32894 ft 442 kts 359°
2026-04-24 06:08 14.50278 107.84385 32894 ft 442 kts 359°
2026-04-24 06:08 14.56416 107.84385 32894 ft 442 kts 359°
2026-04-24 06:09 14.62544 107.84386 32894 ft 442 kts 359°
2026-04-24 06:09 14.65609 107.84385 32633 ft 442 kts 359°
2026-04-24 06:09 14.68665 107.84386 32133 ft 441 kts 359°
2026-04-24 06:10 14.71724 107.84386 31508 ft 440 kts 359°
2026-04-24 06:10 14.74754 107.84386 30820 ft 440 kts 359°
2026-04-24 06:10 14.77787 107.84386 30100 ft 441 kts 359°
2026-04-24 06:11 14.83947 107.84406 28563 ft 445 kts
2026-04-24 06:11 14.86989 107.84666 27755 ft 448 kts
2026-04-24 06:11 14.90051 107.85300 27069 ft 447 kts 14°
2026-04-24 06:11 14.92969 107.86247 26528 ft 443 kts 18°
2026-04-24 06:12 14.95848 107.87317 25985 ft 439 kts 19°
2026-04-24 06:12 14.98704 107.88406 25447 ft 435 kts 19°
2026-04-24 06:12 15.01508 107.89477 24912 ft 431 kts 19°
2026-04-24 06:12 15.04304 107.90537 24381 ft 427 kts 19°
2026-04-24 06:13 15.07057 107.91577 23861 ft 423 kts 19°
2026-04-24 06:13 15.09820 107.92617 23340 ft 419 kts 19°
2026-04-24 06:13 15.11843 107.93376 22955 ft 417 kts 19°
2026-04-24 06:13 15.14546 107.94386 22448 ft 413 kts 19°
2026-04-24 06:14 15.17202 107.95381 21946 ft 410 kts 19°
2026-04-24 06:14 15.19865 107.96381 21435 ft 407 kts 19°
2026-04-24 06:14 15.22524 107.97379 20925 ft 405 kts 19°
2026-04-24 06:14 15.25146 107.98365 20424 ft 402 kts 19°
2026-04-24 06:15 15.27742 107.99342 19921 ft 400 kts 19°
2026-04-24 06:15 15.30345 108.00322 19417 ft 398 kts 19°
2026-04-24 06:15 15.32952 108.01303 18897 ft 397 kts 19°
2026-04-24 06:15 15.35528 108.02271 18387 ft 395 kts 19°
2026-04-24 06:16 15.38065 108.03223 17892 ft 393 kts 19°
2026-04-24 06:16 15.40679 108.04042 17381 ft 390 kts 10°
2026-04-24 06:16 15.43355 108.04350 16883 ft 386 kts 359°
2026-04-24 06:16 15.45990 108.04166 16399 ft 382 kts 352°
2026-04-24 06:17 15.48622 108.03780 15913 ft 380 kts 350°
2026-04-24 06:17 15.51184 108.03374 15440 ft 377 kts 350°
2026-04-24 06:17 15.53759 108.02976 14963 ft 375 kts 351°
2026-04-24 06:17 15.56341 108.02590 14482 ft 372 kts 351°
2026-04-24 06:18 15.58883 108.02218 14007 ft 370 kts 351°
2026-04-24 06:18 15.61390 108.01854 13687 ft 363 kts 352°
2026-04-24 06:18 15.63890 108.01494 13576 ft 356 kts 352°
2026-04-24 06:18 15.66306 108.01144 13464 ft 351 kts 352°
2026-04-24 06:19 15.68700 108.00799 13351 ft 348 kts 352°
2026-04-24 06:19 15.71104 108.00452 13246 ft 344 kts 352°
2026-04-24 06:19 15.73419 108.00484 12996 ft 336 kts 14°
2026-04-24 06:19 15.75432 108.01570 12804 ft 326 kts 42°
2026-04-24 06:20 15.76684 108.03499 12480 ft 320 kts 72°
2026-04-24 06:20 15.76891 108.05735 12182 ft 315 kts 94°
2026-04-24 06:20 15.76703 108.07994 11931 ft 308 kts 93°
2026-04-24 06:20 15.76377 108.10170 11604 ft 305 kts 111°
2026-04-24 06:21 15.75169 108.11915 11256 ft 301 kts 143°
2026-04-24 06:21 15.73303 108.12753 10930 ft 296 kts 171°
2026-04-24 06:21 15.71257 108.12949 10654 ft 291 kts 177°
2026-04-24 06:21 15.69257 108.13076 10379 ft 287 kts 176°
2026-04-24 06:22 15.67291 108.13260 10107 ft 283 kts 174°
2026-04-24 06:22 15.65359 108.13495 9837 ft 279 kts 173°
2026-04-24 06:22 15.63453 108.13760 9569 ft 274 kts 170°
2026-04-24 06:22 15.61730 108.14459 9260 ft 272 kts 141°
2026-04-24 06:23 15.60643 108.16010 8952 ft 269 kts 107°
2026-04-24 06:23 15.60510 108.17928 8669 ft 264 kts 82°
2026-04-24 06:23 15.60800 108.19776 8392 ft 261 kts 79°
2026-04-24 06:23 15.61115 108.21646 8061 ft 260 kts 80°
2026-04-24 06:24 15.61431 108.23465 7752 ft 259 kts 74°
2026-04-24 06:24 15.62318 108.25047 7378 ft 257 kts 40°
2026-04-24 06:24 15.63889 108.25865 7029 ft 255 kts
2026-04-24 06:24 15.65642 108.25803 6712 ft 252 kts 351°
2026-04-24 06:25 15.67346 108.25504 6466 ft 248 kts 350°
2026-04-24 06:25 15.69024 108.25211 6239 ft 243 kts 350°
2026-04-24 06:25 15.70673 108.24943 6025 ft 238 kts 351°
2026-04-24 06:25 15.72296 108.24695 5762 ft 235 kts 351°
2026-04-24 06:26 15.73914 108.24455 5462 ft 234 kts 351°
2026-04-24 06:26 15.75532 108.24217 5160 ft 233 kts 352°
2026-04-24 06:26 15.77113 108.23988 4870 ft 233 kts 352°
2026-04-24 06:26 15.78721 108.23757 4619 ft 231 kts 352°
2026-04-24 06:27 15.80322 108.23527 4288 ft 233 kts 352°
2026-04-24 06:27 15.81917 108.23296 3980 ft 233 kts 352°
2026-04-24 06:27 15.83521 108.23065 3686 ft 233 kts 352°
2026-04-24 06:27 15.85116 108.22834 3402 ft 231 kts 352°
2026-04-24 06:28 15.86709 108.22603 3070 ft 233 kts 352°
2026-04-24 06:28 15.88283 108.22375 2897 ft 227 kts 352°
2026-04-24 06:28 15.89865 108.22146 2597 ft 229 kts 352°
2026-04-24 06:28 15.91443 108.21917 2295 ft 231 kts 352°
2026-04-24 06:29 15.93029 108.21687 1990 ft 229 kts 353°
2026-04-24 06:29 15.94574 108.21462 1686 ft 220 kts 353°
2026-04-24 06:29 15.96050 108.21247 1443 ft 211 kts 354°
2026-04-24 06:29 15.97452 108.21043 1211 ft 197 kts 354°
2026-04-24 06:30 15.98775 108.20850 953 ft 184 kts 354°
2026-04-24 06:30 16.00002 108.20673 684 ft 174 kts 354°
2026-04-24 06:30 16.01166 108.20504 435 ft 164 kts 354°
2026-04-24 06:30 16.02236 108.20347 214 ft 149 kts 354°
2026-04-24 06:31 16.03206 108.20203 48 ft 132 kts 355°
2026-04-24 06:31 16.04000 108.20098 42 ft 93 kts 351°
2026-04-24 06:31 16.04529 108.20022 42 ft 58 kts 351°
2026-04-24 06:31 16.04781 108.19985 42 ft 21 kts 351°
2026-04-24 06:32 16.04903 108.20001 42 ft 14 kts 76°
2026-04-24 06:32 16.04905 108.20034 42 ft 4 kts 74°
2026-04-24 06:32 16.04913 108.20066 42 ft 5 kts 74°
2026-04-24 06:32 16.04935 108.20094 42 ft 5 kts 20°
2026-04-24 06:33 16.04980 108.20095 42 ft 8 kts 352°
2026-04-24 06:33 16.05042 108.20086 42 ft 9 kts 352°
2026-04-24 06:33 16.05101 108.20097 42 ft 9 kts 59°
2026-04-24 06:33 16.05113 108.20164 42 ft 7 kts 82°
2026-04-24 06:34 16.05117 108.20191 42 ft 0 kts 82°